Regional Weather Roundup
Issued by NWS

Home | Current Version | Previous Version | Text Only | Print | Product List | Glossary On
Versions: 1 2 3 4 5 6 7 8 9 10 11 12 13 14 15 16 17 18 19 20 21 22 23 24 25 26 27
000
ASUS45 KBOU 171707
RWRCO

WEATHER ROUNDUP FOR COLORADO
NATIONAL WEATHER SERVICE DENVER/BOULDER CO
1000 AM MST TUE JAN 17 2017

NOTE: "FAIR" INDICATES FEW OR NO CLOUDS BELOW 12000 FEET WITH NO
SIGNIFICANT WEATHER AND/OR OBSTRUCTIONS TO VISIBILITY.

COZ001>005-013-030-031-171800-
...NORTHWEST COLORADO...

CITY           SKY/WX    TMP DP  RH WIND       PRES   REMARKS
CRAIG          CLOUDY    17  14  88 CALM      30.25R FOG
HAYDEN         FAIR      18  12  79 SE5       30.21S WCI  11
MEEKER         CLOUDY    19  14  81 N3        30.23S
MOUNT WERNER   NOT AVBL
STEAMBOAT SPGS PTSUNNY   16  11  81 CALM      30.21S
WALDEN           N/A    N/A N/A N/A CALM      30.19R VSB 1/4
$$

COZ006>008-011-171800-
...WEST CENTRAL VALLEYS...

CITY           SKY/WX    TMP DP  RH WIND       PRES   REMARKS
GRAND JUNCTION FAIR      32  22  66 CALM      30.23R
MONTROSE       CLOUDY    32  27  81 SE3       30.23R
EAGLE          CLOUDY    30  21  69 CALM      30.24R
RIFLE          FAIR      27  18  69 E3        30.24R
DELTA          CLOUDY    36  28  74 CALM      30.23R
NUCLA          CLOUDY    32  27  80 CALM      30.24R
$$

COZ017>023-064>068-171800-
...SOUTHWEST COLORADO...

CITY           SKY/WX    TMP DP  RH WIND       PRES   REMARKS
DURANGO        CLOUDY    34  30  85 NE3       30.18R
CORTEZ         CLOUDY    36  34  92 E3        30.18R
PAGOSA SPRINGS CLOUDY    33  33 100 CALM      30.19R
TELLURIDE      FOG       24  23  97 CALM      30.18R VSB 1
WOLF CREEK PAS CLOUDY    18  18 100 SW6       30.22R WCI   9
$$

COZ009-010-012-014-032>034-037-058>063-171800-
...CENTRAL COLORADO...

CITY           SKY/WX    TMP DP  RH WIND       PRES   REMARKS
ASPEN          FAIR      26  19  74 N3        30.18R
BUENA VISTA    FAIR      19  17  91 W6        30.14R WCI  11
COPPER MTN     HAZE      23  18  80 W3        30.18R VSB 1/2
BERTHOUD PASS  NOT AVBL
COTTONWOOD PAS FAIR      32  25  74 CALM      30.13R
GUNNISON       CLOUDY    25  23  92 NE6       30.19R WCI  18
KREMMLING      CLOUDY    23  21  93 CALM      30.22F
LEADVILLE      FAIR      23  16  74 N10       30.14R WCI  12
MONARCH PASS   CLOUDY    19  16  86 MISG      30.25R
SALIDA         FAIR      31  24  76 N10       30.20R WCI  22
SUNLIGHT       FAIR     N/A N/A N/A CALM      30.21R FOG
WILKERSON PASS FAIR      28  12  50 CALM      30.16R
$$

COZ069>075-171800-
...SAN LUIS VALLEY/SANGRE DE CRISTO MOUNTAINS...

CITY           SKY/WX    TMP DP  RH WIND       PRES   REMARKS
ALAMOSA        CLOUDY    27  25  92 NW5       30.17R WCI  22
LA VETA PASS   CLOUDY    28  23  80 NE29G37   30.12R FOG     WCI  13
SAGUACHE       CLOUDY    32  28  86 CALM      30.17S
$$

COZ035-036-038>040-171800-
...NORTHERN COLORADO FRONT RANGE...

CITY           SKY/WX    TMP DP  RH WIND       PRES   REMARKS
DENVER INTL AP FAIR      31  22  69 SW10      30.05F WCI  22
DMNS CITY PARK   N/A     33  22  62 SE8       30.06F WCI  26
AURORA         MOSUNNY   31  24  74 S5        30.07R WCI  26
FRONT RANGE AP SUNNY     34  25  69 SW10      30.06F WCI  26
ERIE MUNI ARPT FAIR      28  27  99 CALM      30.06F
BOULDER MUN AP FAIR      32  28  86 CALM      30.05F
CENTENNIAL     FAIR      29  23  78 SE3       30.06S
BROOMFIELD     SUNNY     30  23  74 CALM      30.06F
FORT COLLINS   FAIR      30  23  74 CALM      30.08S
LONGMONT       FAIR      32  30  92 CALM      30.08F
$$

COZ041-046-047-076>085-087-088-171800-
...PIKES PEAK/PALMER DIVIDE AND SOUTHERN FOOTHILLS...

CITY           SKY/WX    TMP DP  RH WIND       PRES   REMARKS
COLO. SPRINGS  CLOUDY    30  27  88 CALM      30.09S
A. F. ACADEMY  CLOUDY    28  26  91 CALM      30.08R
SCHRIEVER AFB  NOT AVBL
ELLICOTT       CLOUDY   N/A N/A N/A W5        30.08R
FALCON         FOG       29  29  99 CALM      30.08S VSB<1/4
FORT CARSON    PTSUNNY   32  30  93 VRB3      30.10S FOG
LIMON          PTSUNNY   34  30  85 W6        30.09R WCI  29
MONUMENT HILL  FAIR      28  27  93 SW6       30.07S WCI  22
TRINIDAD       FAIR      28  23  81 SW13      30.10R WCI  17
$$

COZ042>045-048>051-090-091-171800-
...NORTHEAST COLORADO...

CITY           SKY/WX    TMP DP  RH WIND       PRES   REMARKS
GREELEY ARPT   NOT AVBL
AKRON          FAIR      34  25  69 SW10      30.07S WCI  26
BURLINGTON     FAIR      33  26  75 W8        30.10S WCI  26
WRAY           NOT AVBL
STERLING       FAIR      27  21  80 S6        30.08S WCI  20
HOLYOKE        FAIR      30  19  64 SW5       30.09S WCI  25
FORT MORGAN    FAIR      26  20  78 W5        30.09R WCI  20
$$

COZ086-089-092>099-171800-
...SOUTHEAST COLORADO...

CITY           SKY/WX    TMP DP  RH WIND       PRES   REMARKS
PUEBLO         CLOUDY    32  30  92 CALM      30.12R FOG
LA JUNTA       FAIR      29  25  85 W5        30.14R WCI  24
LAMAR          FAIR      31  28  89 W6        30.14R WCI  25
SPRINGFIELD      N/A     32  30  92 SW6       30.14R WCI  26
$$




USA.gov is the U.S. government's official web portal to all federal, state and local government web resources and services.